EW4711 Weather Reports


time (UTC)temp
F
wind
direction
speed
knots
gust
knots
rain 1hr
in
rain 24hr
in
rain mn
in
humidity
%
barometer
mb
20260507140604 49 226 1.7 2.6 0.00 0.11 0.01 68 1012.0
20260507140104 49 208 0.9 2.6 0.00 0.11 0.01 73 1012.0
20260507135603 49 160 0.9 2.6 0.00 0.12 0.01 73 1012.1
20260507135103 49 151 1.7 5.2 0.00 0.12 0.01 74 1012.2
20260507134603 48 203 0.9 4.3 0.00 0.12 0.01 75 1012.2
20260507134104 48 139 2.6 5.2 0.00 0.12 0.01 73 1012.3
20260507133604 47 131 0.9 2.6 0.00 0.12 0.01 70 1012.3
20260507133104 47 164 1.7 2.6 0.00 0.12 0.01 74 1012.3
20260507132604 47 173 1.7 2.6 0.00 0.12 0.01 74 1012.4
20260507132103 47 149 1.7 4.3 0.00 0.12 0.01 75 1012.3
20260507131103 46 181 0.9 2.6 0.00 0.12 0.01 76 1012.4
20260507130104 46 200 1.7 2.6 0.00 0.12 0.01 81 1012.5
20260507125604 45 176 1.7 2.6 0.00 0.12 0.01 81 1012.5
20260507125103 45 155 1.7 2.6 0.00 0.12 0.01 84 1012.5
20260507124604 44 151 1.7 2.6 0.00 0.12 0.01 89 1012.5
20260507124104 43 158 1.7 2.6 0.00 0.13 0.01 91 1012.5
20260507123603 42 147 0.9 2.6 0.00 0.13 0.01 95 1012.6
20260507123104 40 153 0.9 1.7 0.00 0.13 0.01 97 1012.6
20260507122603 39 182 0.9 1.7 0.00 0.13 0.01 97 1012.6
20260507122104 39 220 0.9 1.7 0.00 0.13 0.01 97 1012.5
20260507121604 39 235 0.9 1.7 0.00 0.13 0.01 97 1012.6
20260507121103 38 330 0.0 0.0 0.00 0.13 0.01 97 1012.6
20260507120604 38 330 0.0 0.0 0.00 0.14 0.01 97 1012.7
20260507120104 38 330 0.0 0.9 0.00 0.14 0.01 97 1012.7
20260507115604 38 353 0.0 1.7 0.00 0.14 0.01 97 1012.7
20260507115103 38 355 0.9 1.7 0.00 0.14 0.01 97 1012.7
20260507114604 38 355 0.0 2.6 0.00 0.14 0.01 97 1012.8
20260507114103 39 343 0.9 5.2 0.00 0.14 0.01 97 1012.9
20260507113603 39 5 0.9 5.2 0.00 0.14 0.01 97 1012.9
20260507112604 39 26 0.9 2.6 0.00 0.15 0.01 97 1012.7
20260507112104 39 358 1.7 4.3 0.00 0.15 0.01 97 1012.8
20260507111604 39 347 1.7 2.6 0.00 0.16 0.01 97 1012.6
20260507111105 39 23 0.9 2.6 0.00 0.16 0.01 98 1012.4
20260507110603 39 49 0.0 0.9 0.00 0.16 0.01 98 1012.4
20260507110104 39 75 0.0 1.7 0.00 0.16 0.01 98 1012.3
20260507105603 39 120 0.0 0.9 0.00 0.16 0.01 98 1012.2
20260507104604 38 120 0.0 0.9 0.00 0.17 0.01 98 1011.9
20260507104104 38 120 0.0 0.0 0.00 0.17 0.01 97 1012.0
20260507103603 38 120 0.0 0.0 0.00 0.17 0.01 97 1012.0
20260507103104 38 120 0.0 0.9 0.00 0.17 0.01 97 1011.9
20260507102604 38 121 0.0 0.9 0.00 0.17 0.01 97 1011.8
20260507102104 38 121 0.9 0.9 0.00 0.17 0.01 97 1011.6
20260507101603 38 121 0.0 0.9 0.00 0.18 0.01 97 1011.7
20260507101104 38 121 0.0 0.9 0.00 0.18 0.01 97 1011.8
20260507100604 39 121 0.9 1.7 0.00 0.18 0.01 97 1011.7
20260507094603 39 147 0.0 0.9 0.00 0.20 0.01 97 1012.0
20260507093604 39 147 0.0 0.0 0.00 0.20 0.01 97 1011.9
20260507093104 40 147 0.0 0.0 0.00 0.21 0.01 97 1011.9
20260507092604 40 147 0.0 0.0 0.00 0.21 0.01 97 1011.9
20260507092103 40 147 0.0 0.0 0.00 0.21 0.01 97 1012.0
20260507091603 40 147 0.0 0.0 0.00 0.22 0.01 97 1011.9
20260507090603 40 148 0.0 0.9 0.00 0.23 0.01 97 1011.8
20260507090105 40 148 0.9 2.6 0.00 0.23 0.01 97 1011.7
20260507085103 41 59 0.9 1.7 0.00 0.24 0.01 97 1011.8
20260507084103 41 27 0.0 1.7 0.00 0.24 0.01 98 1011.9
20260507083604 41 26 0.0 1.7 0.00 0.25 0.01 98 1011.9
20260507083104 40 307 0.0 0.9 0.00 0.25 0.01 98 1012.0
20260507082604 40 307 0.0 0.0 0.00 0.26 0.01 98 1012.0
20260507082104 40 307 0.0 0.0 0.00 0.26 0.01 98 1011.9
20260507081604 40 307 0.9 1.7 0.00 0.27 0.01 98 1012.0
20260507081104 40 287 0.0 0.9 0.00 0.27 0.01 97 1012.0
20260507080604 39 287 0.0 0.0 0.00 0.28 0.01 98 1012.0
20260507080103 39 287 0.0 0.0 0.00 0.29 0.01 97 1012.0
20260507075603 39 287 0.9 1.7 0.00 0.30 0.01 98 1011.9
20260507074604 38 274 0.0 0.9 0.00 0.31 0.01 98 1011.8
20260507074104 38 274 0.0 0.9 0.00 0.32 0.01 97 1011.8
20260507073603 38 274 0.0 0.0 0.00 0.32 0.01 97 1011.6
20260507072603 37 274 0.0 0.0 0.00 0.33 0.01 97 1011.7
20260507072104 37 274 0.0 0.9 0.00 0.34 0.01 97 1011.6
20260507071605 37 274 0.0 0.9 0.00 0.34 0.01 97 1011.7
20260507071103 37 274 0.0 0.9 0.00 0.35 0.01 96 1011.8
20260507070603 38 274 0.0 0.0 0.00 0.35 0.01 96 1011.8
20260507070104 38 274 0.0 0.0 0.00 0.36 0.01 96 1011.8
20260507065604 38 274 0.0 0.0 0.00 0.37 0.01 96 1011.7
20260507065103 38 274 0.0 0.0 0.00 0.37 0.01 96 1011.8
20260507064604 39 274 0.9 1.7 0.00 0.37 0.01 96 1011.7
20260507064104 39 274 0.0 0.0 0.00 0.38 0.01 96 1011.9
20260507063604 39 274 0.0 0.0 0.00 0.38 0.01 96 1012.0
20260507063104 40 274 0.0 0.0 0.00 0.39 0.01 96 1012.0
20260507062104 40 274 0.0 0.0 0.01 0.39 0.01 97 1012.0
20260507061604 40 274 0.0 0.0 0.01 0.40 0.01 97 1012.0
20260507061104 41 274 0.0 0.0 0.01 0.40 0.01 97 1012.0
20260507060104 41 274 0.0 0.9 0.01 0.41 0.01 97 1012.1
20260507055603 41 274 0.0 1.7 0.01 0.41 0.01 97 1012.1
20260507055104 41 274 0.9 1.7 0.01 0.41 0.01 97 1012.1
20260507054604 41 274 0.0 0.0 0.01 0.42 0.01 97 1012.2
20260507054105 41 274 0.0 0.0 0.01 0.42 0.01 97 1012.3
20260507053604 41 274 0.0 0.0 0.01 0.42 0.01 97 1012.3
20260507052604 41 274 0.0 0.9 0.00 0.42 0.00 97 1012.2
20260507052103 41 274 0.0 0.9 0.00 0.42 0.00 97 1012.2
20260507051603 41 274 0.0 0.9 0.00 0.43 0.00 97 1012.4
20260507051104 41 274 0.0 1.7 0.00 0.43 0.00 97 1012.5
20260507050104 41 39 0.0 0.0 0.00 0.44 0.00 96 1012.5
20260507045604 41 39 0.0 0.0 0.00 0.45 0.00 97 1012.4
20260507044604 41 39 0.0 0.9 0.00 0.46 0.00 97 1012.6
20260507044103 41 39 0.0 0.0 0.00 0.46 0.00 97 1012.5
20260507043603 41 39 0.0 0.0 0.00 0.46 0.00 96 1012.6
20260507043104 41 39 0.0 0.0 0.00 0.47 0.00 96 1012.6
20260507042604 41 39 0.0 0.9 0.00 0.47 0.00 97 1012.6
20260507042103 41 39 0.0 0.9 0.00 0.47 0.00 97 1012.6
20260507041604 41 39 0.0 0.9 0.00 0.47 0.00 97 1012.6
20260507041104 41 39 0.0 0.0 0.00 0.47 0.00 96 1012.4
20260507040604 42 39 0.0 0.0 0.00 0.47 0.00 96 1012.5
20260507040104 42 39 0.0 0.0 0.00 0.47 0.00 96 1012.5
20260507035603 42 39 0.0 1.7 0.00 0.47 0.47 96 1012.5
20260507035105 42 37 0.9 1.7 0.00 0.47 0.47 97 1012.4
20260507034604 42 288 0.0 0.0 0.00 0.47 0.47 96 1012.5
20260507034103 42 288 0.0 0.0 0.00 0.47 0.47 96 1012.4
20260507033604 42 288 0.0 0.0 0.00 0.47 0.47 96 1012.4
20260507033103 42 288 0.0 0.0 0.00 0.47 0.47 96 1012.4
20260507032604 42 288 0.0 0.0 0.00 0.47 0.47 96 1012.4
20260507032104 42 288 0.0 0.9 0.00 0.47 0.47 96 1012.4
20260507031604 42 288 0.9 1.7 0.00 0.48 0.47 96 1012.5
20260507031104 42 288 0.0 0.9 0.00 0.48 0.47 96 1012.5
20260507030605 42 288 0.9 1.7 0.00 0.48 0.47 96 1012.5
20260507030104 42 288 0.0 0.0 0.00 0.49 0.47 96 1012.5
20260507025603 42 288 0.0 0.9 0.00 0.49 0.47 96 1012.3
20260507025104 42 288 0.0 0.0 0.00 0.50 0.47 96 1012.2
20260507024603 42 288 0.0 1.7 0.00 0.50 0.47 96 1012.3
20260507024104 42 288 0.0 1.7 0.00 0.51 0.47 96 1012.3
20260507023604 42 288 0.9 1.7 0.00 0.51 0.47 96 1012.2
20260507022604 42 288 0.9 1.7 0.00 0.52 0.47 96 1012.3
20260507022104 42 288 0.0 1.7 0.00 0.53 0.47 96 1012.3
20260507021604 42 288 0.9 1.7 0.00 0.53 0.47 96 1012.3
20260507021103 42 293 0.0 1.7 0.00 0.53 0.47 96 1012.4
20260507020603 42 303 0.9 2.6 0.00 0.53 0.47 96 1012.6
20260507020104 42 293 0.9 1.7 0.00 0.53 0.47 96 1012.7
20260507015604 42 293 0.9 2.6 0.00 0.53 0.47 96 1012.8
20260507014604 42 282 0.0 1.7 0.00 0.54 0.47 96 1012.7
20260507014103 42 251 0.0 0.9 0.00 0.54 0.47 96 1012.7
20260507013604 42 251 0.9 1.7 0.00 0.55 0.47 96 1012.6
20260507013103 42 251 0.9 1.7 0.00 0.55 0.47 96 1012.5
20260507012604 42 251 0.0 0.9 0.00 0.55 0.47 96 1012.3
20260507012104 42 251 0.0 1.7 0.00 0.55 0.47 96 1012.3
20260507011604 42 262 0.9 1.7 0.00 0.56 0.47 96 1012.3
20260507010104 42 343 0.0 1.7 0.00 0.56 0.47 96 1012.1
20260507005604 42 343 0.9 1.7 0.00 0.56 0.47 96 1012.1
20260507005103 42 343 0.9 1.7 0.00 0.57 0.47 95 1012.0
20260507004604 42 343 0.0 0.0 0.00 0.57 0.47 96 1012.0
20260507004104 42 343 0.0 0.0 0.00 0.58 0.47 95 1011.9
20260507003604 42 343 0.0 0.0 0.00 0.59 0.47 95 1011.8
20260507003104 42 343 0.0 0.0 0.00 0.60 0.47 95 1011.8
20260507002104 42 343 0.0 1.7 0.00 0.62 0.47 95 1011.8
20260507000603 42 343 0.0 0.0 0.00 0.65 0.47 95 1011.7
20260507000104 42 343 0.0 0.0 0.00 0.67 0.47 95 1011.6
20260506235603 43 343 0.0 0.0 0.00 0.67 0.47 95 1011.6
20260506234604 43 326 1.7 2.6 0.00 0.69 0.47 96 1011.7
20260506234103 43 341 0.9 2.6 0.00 0.70 0.47 96 1011.7
20260506233603 43 347 0.9 2.6 0.00 0.71 0.47 95 1011.7
20260506233104 43 345 1.7 2.6 0.00 0.71 0.47 95 1011.6
20260506232603 43 348 1.7 6.1 0.00 0.72 0.47 96 1011.6
20260506231103 43 1 1.7 2.6 0.00 0.74 0.47 96 1011.4
20260506225603 43 2 1.7 5.2 0.01 0.76 0.47 96 1011.1
20260506225103 43 47 0.9 2.6 0.01 0.76 0.47 96 1011.0
20260506224603 43 3 1.7 5.2 0.01 0.77 0.47 96 1011.0
20260506224103 43 29 0.9 2.6 0.02 0.78 0.47 96 1010.9
20260506223603 43 25 1.7 2.6 0.02 0.78 0.47 96 1010.9
20260506223103 42 39 0.9 1.7 0.02 0.79 0.47 96 1010.9
20260506222603 42 32 1.7 2.6 0.03 0.80 0.47 95 1010.8
20260506222103 42 30 2.6 7.0 0.03 0.81 0.47 95 1010.7
20260506221603 42 38 1.7 7.0 0.04 0.83 0.47 96 1010.6
20260506221103 42 42 1.7 5.2 0.04 0.84 0.47 96 1010.5
20260506214603 42 338 3.5 7.0 0.06 0.89 0.46 95 1010.6
20260506214103 42 352 3.5 7.8 0.05 0.89 0.45 94 1010.5
20260506213103 42 351 3.5 7.0 0.06 0.92 0.45 94 1010.3
20260506212602 42 8 4.3 11.3 0.06 0.93 0.44 93 1010.2
20260506212103 43 11 5.2 13.9 0.06 0.94 0.44 93 1010.1
20260506211103 44 352 8.7 13.9 0.05 0.95 0.43 92 1009.7
20260506210603 46 343 7.0 12.2 0.04 0.95 0.42 92 1009.7
20260506205603 47 26 4.3 10.4 0.03 0.97 0.41 92 1009.4
20260506204603 48 354 2.6 13.0 0.02 0.98 0.40 91 1009.4
20260506203604 50 4 4.3 10.4 0.01 1.00 0.39 89 1009.2
20260506203103 50 342 5.2 7.8 0.01 1.01 0.39 89 1009.1
20260506202603 50 345 0.9 2.6 0.00 1.00 0.38 89 1008.9
20260506202103 50 325 1.7 4.3 0.00 1.00 0.38 88 1008.9
20260506201603 51 298 0.9 2.6 0.00 1.00 0.38 88 1008.9
20260506201103 51 264 0.9 2.6 0.00 1.00 0.38 87 1008.9
20260506200602 51 255 0.9 2.6 0.00 1.00 0.38 87 1008.9
20260506195103 51 237 1.7 2.6 0.00 1.00 0.38 87 1008.8
20260506194603 51 215 1.7 2.6 0.00 1.00 0.38 87 1008.9
20260506194102 51 193 0.9 2.6 0.00 1.00 0.38 87 1009.0
20260506193103 51 274 1.7 2.6 0.00 1.00 0.38 88 1009.0
20260506192603 51 252 0.9 2.6 0.00 1.00 0.38 88 1008.9
20260506192103 51 222 0.9 1.7 0.00 1.00 0.38 88 1008.9
20260506191603 51 205 0.9 2.6 0.00 1.00 0.38 88 1009.0
20260506191103 51 193 1.7 2.6 0.00 1.00 0.38 87 1008.9
20260506190603 51 141 1.7 2.6 0.00 1.00 0.38 88 1008.9
20260506185103 51 142 0.0 0.0 0.00 1.00 0.38 86 1009.0
20260506184603 51 142 0.0 2.6 0.00 1.00 0.38 85 1008.9
20260506184103 51 142 2.6 2.6 0.00 1.00 0.38 86 1008.9
20260506183603 51 179 0.9 2.6 0.00 1.00 0.38 86 1008.9
20260506183103 52 212 0.9 2.6 0.00 1.00 0.38 87 1008.9
20260506182603 51 197 2.6 6.1 0.00 1.00 0.38 88 1009.0
20260506182103 52 155 2.6 7.0 0.00 1.00 0.38 88 1009.1
20260506181103 50 194 1.7 2.6 0.00 1.00 0.38 91 1008.9
20260506180603 49 139 1.7 2.6 0.00 1.00 0.38 91 1008.9
20260506180103 49 175 1.7 2.6 0.00 1.00 0.38 91 1009.0
20260506174603 49 123 0.9 2.6 0.00 1.00 0.38 92 1009.0
20260506174103 49 175 0.0 0.9 0.00 1.00 0.38 92 1009.2
20260506173603 48 147 0.0 0.9 0.00 1.00 0.38 92 1009.2
20260506173104 48 148 0.9 1.7 0.00 1.00 0.38 92 1009.3
20260506172603 48 172 0.0 1.7 0.00 1.00 0.38 92 1009.3
20260506172103 48 172 0.0 0.9 0.00 1.00 0.38 93 1009.3
20260506171103 48 172 1.7 2.6 0.00 1.00 0.38 93 1009.2
20260506170603 48 163 1.7 2.6 0.00 1.00 0.38 94 1009.2
20260506165604 48 176 1.7 2.6 0.00 1.00 0.38 95 1008.9
20260506165103 48 169 1.7 2.6 0.00 1.00 0.38 95 1009.0
20260506164603 48 107 1.7 2.6 0.00 1.00 0.38 95 1008.8
20260506164102 47 175 0.9 2.6 0.00 1.00 0.38 95 1008.9
20260506163603 47 139 1.7 2.6 0.00 1.00 0.38 95 1008.8
20260506162602 47 117 0.0 2.6 0.00 1.00 0.38 95 1009.0
20260506162104 47 124 1.7 2.6 0.00 1.00 0.38 95 1009.0
20260506161603 47 120 1.7 2.6 0.00 1.00 0.38 95 1009.2
20260506161103 47 122 1.7 2.6 0.00 1.00 0.38 96 1009.1
20260506160602 47 99 0.9 2.6 0.00 1.00 0.38 95 1009.0
20260506160103 47 119 1.7 2.6 0.00 1.00 0.38 96 1009.0
20260506155603 47 160 1.7 4.3 0.00 1.00 0.38 96 1008.9
20260506155103 47 139 2.6 5.2 0.00 1.01 0.38 97 1008.8
20260506154603 47 124 1.7 2.6 0.00 1.01 0.38 96 1008.9
20260506154103 47 133 0.0 1.7 0.00 1.01 0.38 97 1008.9
20260506153603 47 136 1.7 2.6 0.00 1.01 0.38 97 1009.0
20260506153103 47 115 0.9 1.7 0.00 1.01 0.38 97 1009.0
20260506152603 47 131 1.7 2.6 0.00 1.01 0.38 97 1008.8
20260506152103 47 140 2.6 2.6 0.00 1.01 0.38 97 1008.6
20260506151603 47 137 2.6 6.1 0.01 1.01 0.38 97 1008.6
20260506151103 47 129 2.6 4.3 0.01 1.01 0.38 97 1008.5
20260506150604 46 110 1.7 2.6 0.01 1.01 0.38 97 1008.6
20260506145603 46 131 1.7 2.6 0.02 1.01 0.38 97 1008.6
20260506145103 46 148 1.7 2.6 0.02 1.01 0.38 97 1008.6
20260506144603 46 127 0.9 4.3 0.02 1.01 0.38 97 1008.5
20260506144103 46 127 2.6 5.2 0.02 1.01 0.38 98 1008.5
20260506143103 46 120 2.6 5.2 0.02 1.01 0.38 98 1008.5
20260506142603 46 123 0.9 2.6 0.02 1.01 0.38 98 1008.5
20260506142104 45 143 0.9 1.7 0.02 1.01 0.38 98 1008.6
20260506141603 45 149 0.9 2.6 0.01 1.00 0.37 97 1008.6
20260506141103 45 120 0.9 2.6 0.01 1.00 0.37 97 1008.5